PAZ (43215 NORAD) Tracking and Keplerian Element Data

This shows tracking and keplerian element data for the satellite.

Feedback or suggestion? Click here.




ElementValue
Catalog43215
NamePAZ
Epoch Orbit444
Epoch Day82.84753738
Epoch Year2018
RAAN91.2707
Inclination97.4463
Eccentricity0.0001812
Argument of Perigee82.2309
Mean Anonmoly39.8809
Mean Motion15.19150159
Decay Rate4.7E-07
L11 43215U 18020A 18082.84753738 .00000047 00000-0 54185-5 0 9999
L22 43215 97.4463 91.2707 0001812 82.2309 39.8809 15.19150159 4448

Live tracking and technical data element details for PAZ (NORAD 43215). PAZ can be tracked NOW for your location showing map with azimuth and elevation plus other details from your city location.

Track the satellite on the map from your city or location and see movement details for azimuth, elevation, latitude, longitude, range, height, and movement on the map or in text.







IsCatalogInMostPopularTable: catalog: 43215, numindb: 184
Update: records affected: 2



GetName: 43215 PAZ

Hit Count: updated at: Fri, 16 Nov 2018 02:54:07 GMT